Погода в Моршихе

Россия / Курганская область     55°22′48″N   67°03′40″E
темп.,
°C
ветер,
м/с
пор.,
м/с
влажн.,
%
обл.,
%
осадки,
мм/ч
давл.,
гПа
погр.,
м
18 апреля, вс
вс1823:00+5зюз47755 0.0 1019129
02:00+4з48805 0.0 1016143
05:00+3з4108698 0.0 1015181
08:00+5з6126722 0.0 1013497
11:00+9зсз9135142 0.0 10121715
14:00+5с12135997 0.1 10161377
17:00+2ссв10124375 0.1 10221750
20:00−1ссв711430 0.0 10261454
19 апреля, пн
пн1923:00−3ссв79472 0.0 10281248
02:00−5ссв68475 0.0 10301172
05:00−6ссв57452 0.0 10321031
08:00−6ссв67395 0.0 10341180
11:00−3ссв563411 0.0 10341578
14:00−1с5631100 0.0 10332059
17:000ссв5731100 0.0 10322187
20:00−3ссв36465 0.0 1033103
20 апреля, вт
вт2023:00−4св22485 0.0 103425
02:00−4с11480 0.0 103412
05:00−4сз11485 0.0 103417
08:00−1зсз34362 0.0 1034607
11:00+2сз452982 0.0 10321308
14:00+5зсз57305 0.0 10301628
17:00+6зсз79345 0.0 10281739
20:00+3з49525 0.0 1027157
21 апреля, ср
ср2123:00+2з496492 0.0 1027158
02:00+1зсз410698 0.0 1026175
05:000сз48765 0.0 1027159
08:00+4с59715 0.0 1029570
11:00+7с67495 0.0 10301285
14:00+9с56361 0.0 10301610
17:00+9ссв56352 0.0 10311655
20:00+6св36490 0.0 1034108
22 апреля, чт
чт2223:00+3в34580 0.0 103660
02:00+1вюв35670 0.0 103780
05:000юв34750 0.0 103977
08:00+3юв45590 0.0 1040376
11:00+7юв44461 0.0 10401016
14:00+9ююв44374 0.0 10401435
17:00+10ююв44350 0.0 10391443
20:00+6юв47470 0.0 1040137